Temp
10 11 12 11 11 11 11 11 11 11 11 11 11 12 12 12 12 12 11 17 17 17 17 17 17 17 17 16 15 13 14 15 18 17 21 19 21 20 18 19 19 20 19 17 16
9 10 11 11 11 11 11 11 11 11 11 11 11 11 12 12 12 11 17 17 16 16 16 16 15 16 15 16 15 15 13 16 17 17 20 19 19 19 19 19 19 19 16 14 14
9 9 9 10 11 11 11 11 11 11 11 11 11 11 12 12 11 14 16 16 16 16 16 17 17 17 17 17 16 14 15 15 18 18 18 18 18 17 18 18 16 19 18 12 12
8 8 8 9 9 11 11 11 11 11 11 11 11 11 11 12 16 15 16 15 15 15 16 16 15 16 16 16 16 17 15 16 18 18 18 18 17 17 16 17 18 16 16 12 12
7 8 8 8 9 9 11 11 11 11 11 11 11 11 11 12 12 15 15 15 15 15 15 15 15 15 16 15 16 16 17 16 16 17 16 16 16 16 14 14 13 15 14 12 12
7 8 8 8 8 9 10 11 11 11 11 10 11 11 11 12 15 15 15 15 15 15 15 15 15 15 16 16 16 17 16 16 16 17 16 17 16 16 17 16 16 13 13 12 12
8 8 8 8 7 8 9 10 10 10 10 10 10 10 10 12 15 15 14 14 15 15 14 15 16 16 17 17 17 17 17 16 16 16 16 15 17 14 15 15 15 15 14 12 12
8 7 8 8 7 7 8 9 10 10 10 10 10 10 10 14 13 14 14 14 14 15 15 16 17 16 16 16 16 17 16 17 18 15 17 17 18 20 16 15 17 16 14 14 14
7 7 7 7 8 8 8 9 10 9 9 9 9 10 11 13 12 13 14 14 14 15 15 16 16 14 16 15 15 15 16 15 17 15 16 16 18 18 16 15 16 16 15 14 13
7 7 8 7 7 8 8 9 10 9 9 9 10 10 11 12 13 13 13 14 14 14 15 14 11 11 11 13 14 16 15 15 16 17 16 16 15 15 15 15 16 16 14 13 12
7 7 7 8 7 8 7 9 9 9 8 10 11 11 12 12 13 12 13 14 13 13 12 13 12 11 12 13 15 15 15 17 17 16 16 15 15 16 16 14 15 14 13 13 12
7 7 7 7 7 7 6 8 11 10 9 10 10 11 12 13 12 12 13 13 12 12 11 12 11 12 13 13 15 15 16 16 17 16 16 15 15 15 15 16 16 14 12 12 10
6 6 7 7 7 7 6 7 9 10 11 11 10 10 11 12 12 11 11 12 12 11 10 11 14 12 13 12 13 13 14 16 17 16 16 14 15 18 18 16 15 12 12 11 9
6 7 7 7 6 6 5 8 9 8 9 11 9 10 11 12 11 13 12 12 12 11 10 12 13 12 12 13 13 13 13 15 17 16 15 14 15 17 18 16 16 14 11 9 9
5 6 7 7 7 5 7 9 10 8 9 11 10 11 10 12 11 10 13 13 11 11 11 12 11 12 12 13 13 14 12 13 15 14 14 15 14 15 16 18 16 14 11 10 9
5 5 6 6 6 7 8 9 9 8 9 9 9 9 9 12 11 10 12 13 12 12 12 12 12 13 13 13 13 11 12 11 10 11 8 13 14 15 17 17 17 15 11 10 8
5 5 5 6 5 5 7 7 7 8 9 9 9 9 11 11 11 11 10 11 10 11 9 12 12 12 12 12 13 13 13 7 9 7 11 11 12 15 17 16 16 14 12 9 8
4 5 5 5 5 6 6 7 7 9 8 9 8 9 11 11 11 11 10 10 12 10 9 11 10 11 11 12 12 11 13 11 13 10 12 11 13 15 14 14 15 14 12 9 8
4 4 4 5 5 5 5 6 7 9 10 8 10 10 10 11 11 11 10 11 11 10 14 10 11 10 11 12 13 13 12 12 9 3 9 12 12 14 13 13 13 12 10 10 9
3 4 4 4 4 5 5 7 5 8 10 9 10 11 11 11 11 11 10 12 11 12 11 11 11 9 10 12 12 12 12 13 8 10 12 11 12 15 14 12 12 11 10 10 9
3 3 3 3 4 5 6 6 5 9 9 11 10 9 12 11 12 11 10 11 12 11 12 10 11 8 10 10 11 11 11 12 12 11 12 10 13 12 14 12 11 11 11 10 9
3 4 3 3 3 5 6 5 8 8 9 9 9 10 11 12 11 11 11 12 12 12 11 11 9 8 9 9 9 9 12 13 15 12 8 10 13 11 11 11 11 10 10 10 9
3 3 2 3 4 4 5 5 6 7 8 9 8 10 10 11 10 11 11 10 10 12 12 12 10 9 9 9 9 9 10 12 11 10 10 13 14 10 10 10 10 9 9 8 7
2 3 2 3 4 4 4 6 5 7 8 7 7 8 10 11 10 11 9 10 9 12 12 13 8 12 14 14 11 8 8 10 13 12 13 12 13 12 10 9 9 9 7 7 7
1 1 1 2 3 3 5 4 6 7 8 9 6 7 8 9 10 8 11 8 8 11 10 12 11 10 7 9 11 12 12 10 10 14 15 16 11 12 10 9 8 8 6 6 4
2 1 -1 1 3 4 5 4 3 5 7 7 7 7 6 8 9 8 10 8 8 9 11 10 8 9 10 6 8 9 10 11 11 11 12 7 8 11 11 8 8 7 6 6 6
2 0 2 2 2 3 3 5 5 6 6 5 7 8 6 7 7 7 10 10 9 10 11 10 7 10 11 7 9 10 10 10 11 12 14 12 14 10 9 10 9 7 7 6 6
Height
797 796 795 796 796 797 794 794 794 792 790 790 789 788 787 787 786 786 783 779 779 780 782 783 784 785 786 787 789 794 812 816 798 801 783 779 778 775 776 777 775 772 772 773 774
797 795 794 795 794 794 792 793 792 792 790 789 789 788 787 785 784 782 777 776 778 779 781 782 784 786 790 789 791 798 814 800 789 788 782 781 781 781 779 780 776 773 772 773 775
796 796 793 792 791 791 791 792 790 791 791 789 788 787 787 785 784 775 774 774 778 779 780 782 783 785 789 789 791 797 800 790 782 781 781 782 782 780 781 781 777 772 771 774 775
795 795 793 791 790 790 790 790 789 789 789 789 788 787 786 786 785 772 772 773 777 779 781 782 784 788 792 792 787 792 788 786 780 779 780 781 782 781 781 771 767 767 768 771 774
794 792 791 790 789 788 787 787 787 787 788 788 788 786 787 788 778 771 771 773 777 779 781 783 784 787 791 790 788 790 784 784 782 781 782 781 783 783 777 767 767 767 767 768 770
791 790 789 787 787 786 784 783 784 786 787 788 786 786 788 790 772 770 771 771 774 778 780 782 783 783 785 786 788 782 784 783 781 779 780 781 780 777 764 761 761 765 767 767 768
787 786 787 786 786 784 782 781 782 784 785 786 786 786 787 778 772 770 770 772 773 776 780 781 781 783 783 783 781 781 784 782 778 777 780 780 780 778 760 760 761 761 763 766 766
784 783 784 783 782 782 781 781 780 782 783 786 785 786 783 770 769 770 770 772 774 774 778 780 781 782 783 782 785 785 785 789 773 779 776 779 778 757 757 761 759 759 761 762 762
781 780 780 780 780 780 780 780 778 778 781 783 784 787 780 769 768 768 769 771 773 775 777 779 781 786 784 792 795 792 793 795 781 777 778 782 773 758 758 761 760 760 760 760 761
776 777 778 777 779 780 779 779 777 778 781 783 784 788 774 767 765 766 769 770 772 775 778 780 789 795 799 796 802 790 795 789 785 776 778 780 778 765 762 762 758 756 757 759 760
771 773 774 775 777 778 779 780 781 781 778 770 769 767 765 765 765 767 769 769 773 775 785 783 791 794 784 786 782 784 788 783 778 775 777 780 775 762 757 760 756 754 756 753 755
765 767 770 772 773 774 776 776 771 773 771 766 767 765 764 763 766 767 768 771 773 780 783 789 785 781 781 783 783 784 784 783 777 776 777 777 769 760 754 751 750 754 753 752 756
758 761 764 768 770 769 769 771 770 771 767 758 757 759 760 763 765 764 769 769 772 780 783 784 773 774 778 784 786 788 788 784 781 778 779 784 769 749 745 747 750 753 753 754 756
752 754 758 763 768 764 762 768 770 774 772 750 755 748 751 759 760 754 760 764 770 776 782 779 771 776 779 780 781 788 782 779 777 786 796 786 792 758 746 749 747 750 754 756 757
744 747 750 756 756 758 759 764 769 774 772 731 735 733 737 741 743 751 750 760 767 770 773 770 774 775 777 773 774 776 778 782 781 791 791 788 797 765 752 746 745 749 754 757 758
735 739 743 747 750 753 759 759 766 769 741 728 727 729 737 732 742 750 751 754 758 765 766 767 767 766 764 768 769 781 782 792 803 802 832 787 787 770 752 741 738 743 751 754 758
725 729 734 739 738 750 755 758 759 737 721 720 717 719 718 728 739 741 749 752 757 770 779 767 766 764 762 769 772 773 783 838 827 848 809 792 790 755 738 736 735 740 747 752 756
715 720 720 726 735 743 745 738 720 710 715 702 712 714 713 720 728 737 745 753 745 750 766 766 779 765 761 759 764 778 770 794 795 810 787 796 778 747 738 736 735 736 742 749 754
705 707 709 714 722 732 726 714 695 690 693 707 706 706 713 710 714 725 732 730 729 736 726 759 758 759 758 754 754 767 772 769 802 847 807 779 763 740 738 738 738 742 744 747 750
691 688 693 702 711 717 702 687 697 683 682 695 690 688 696 700 708 713 727 712 717 716 724 732 749 762 759 755 757 757 758 774 798 806 791 782 767 742 737 738 741 743 744 746 748
682 674 672 690 699 693 673 678 692 680 680 681 685 691 680 689 691 700 709 704 706 714 725 732 732 767 757 759 752 762 765 758 761 772 771 792 754 732 723 729 736 739 741 743 746
664 660 668 680 686 668 666 671 674 678 678 683 683 680 678 681 690 692 693 684 692 702 718 724 740 758 754 758 758 759 744 744 743 762 788 776 746 729 729 730 733 739 741 742 745
646 653 662 667 663 665 665 668 673 676 674 678 680 671 674 678 693 683 687 691 696 696 701 710 732 751 757 759 757 757 750 738 744 752 764 755 734 733 731 733 735 739 742 745 746
645 647 648 652 651 658 667 657 666 668 670 681 678 672 668 668 676 677 691 693 696 693 695 699 728 704 697 696 714 748 753 744 733 746 737 738 727 726 734 736 737 739 743 747 747
623 636 634 643 645 652 656 659 653 661 667 668 679 680 670 673 673 684 679 695 698 691 699 698 707 713 732 718 709 710 717 738 744 718 722 705 729 721 725 727 733 737 743 748 752
623 634 644 644 642 643 645 650 663 665 658 667 670 677 681 670 667 674 669 684 687 694 694 700 713 713 713 735 726 724 722 723 726 730 726 749 742 717 716 729 736 735 741 744 747
624 633 633 634 640 645 648 647 646 656 665 667 661 666 674 673 675 674 659 661 667 675 685 697 715 705 700 727 726 723 708 713 711 709 701 719 704 719 721 724 726 732 735 738 742
Wind_Speed
10 9 8 8 8 10 8 8 8 7 6 6 6 6 6 8 10 8 6 6 3 10 6 4 4 3 1 3 3 4 3 3 5 6 4 1 0 1 2 1 2 4 3 1 17
13 10 8 8 9 9 9 9 8 8 7 7 7 7 6 8 9 11 13 8 8 8 6 8 4 4 1 2 1 4 4 9 4 4 2 2 1 3 3 2 4 4 1 5 22
13 14 11 10 8 11 9 9 8 8 8 6 6 7 7 7 2 5 5 12 8 8 5 6 6 3 3 2 3 4 6 4 3 4 2 1 2 1 1 5 9 6 4 6 9
14 15 15 13 13 9 11 10 9 9 8 7 6 6 7 3 4 1 4 10 8 7 6 7 4 5 4 5 4 2 6 4 2 1 1 2 3 5 7 8 3 4 4 7 9
14 13 15 15 15 13 10 12 10 9 9 8 6 4 3 3 8 1 3 9 7 8 6 4 4 5 5 4 4 3 3 3 5 4 4 2 6 6 10 12 10 5 4 9 9
14 15 14 14 16 14 12 12 11 10 8 8 5 3 1 5 3 2 5 9 9 8 4 4 5 5 3 3 5 3 3 5 5 4 3 4 3 1 5 1 3 5 9 8 9
16 16 15 15 15 15 12 11 14 11 8 7 4 2 2 11 3 3 5 6 9 9 4 4 1 1 2 1 2 1 4 6 6 4 6 5 7 10 8 4 8 6 4 9 10
22 16 17 15 16 16 14 15 12 11 7 6 3 2 7 5 6 9 8 6 6 8 3 5 1 1 1 1 4 1 2 2 1 5 1 3 9 4 4 5 6 6 6 6 6
21 20 17 16 16 16 14 13 11 11 6 4 2 2 8 3 4 9 10 6 7 6 3 6 2 2 2 3 3 3 3 4 7 6 3 5 7 4 3 4 5 6 6 6 6
25 21 19 16 15 15 13 14 10 9 7 4 1 1 5 4 4 8 10 11 3 4 3 4 4 3 2 4 6 6 4 4 4 1 2 3 12 10 9 7 10 9 8 8 7
25 24 24 20 17 13 10 4 4 2 6 8 5 4 1 2 5 5 7 8 3 4 5 2 4 9 15 5 2 3 3 2 3 1 2 6 9 13 11 6 10 7 9 8 6
27 25 22 22 20 15 9 5 1 2 4 19 6 7 3 4 2 2 10 6 5 5 6 3 10 8 6 7 5 1 1 4 3 1 2 4 13 10 9 6 4 5 7 4 6
30 27 24 22 21 19 16 17 7 7 5 4 15 7 5 6 5 7 9 4 4 6 7 6 3 9 7 5 8 4 6 3 3 3 1 6 9 4 1 2 2 1 1 3 7
29 29 28 23 17 16 11 20 23 9 5 8 9 9 8 7 6 11 16 5 3 10 8 6 4 5 4 6 7 5 9 6 1 4 4 3 5 5 2 5 3 3 3 5 7
31 30 26 28 9 7 7 21 21 4 6 8 11 9 11 13 11 8 18 3 7 7 8 9 8 6 5 7 8 5 5 7 4 4 1 2 1 8 2 6 7 7 6 6 6
32 31 30 29 29 19 14 16 18 8 12 7 8 14 11 13 3 5 6 4 4 5 2 5 1 5 5 2 10 8 7 7 4 3 2 7 7 5 5 6 3 4 6 8 7
36 34 36 34 22 25 20 9 11 17 1 8 8 11 18 10 9 8 14 15 9 6 6 1 4 2 3 6 3 2 6 3 3 2 6 2 3 8 4 5 5 8 8 8 8
39 37 37 37 34 29 22 12 19 22 13 3 8 15 16 11 11 9 17 14 18 3 4 8 4 9 5 6 8 7 7 6 8 5 3 2 7 6 4 5 3 3 7 7 8
40 43 31 35 40 34 13 20 18 16 19 8 11 18 11 15 9 12 17 19 19 16 14 9 7 1 1 4 8 6 7 4 6 2 2 5 7 9 5 4 4 5 6 8 8
40 23 29 41 38 30 18 26 10 9 11 8 16 14 25 21 13 19 17 16 10 23 2 6 3 1 2 2 1 4 7 3 2 4 4 4 5 5 5 9 7 7 8 7 6
29 8 16 43 28 12 14 21 6 16 6 18 17 14 19 18 20 17 19 8 20 19 11 3 2 1 5 6 8 4 3 3 4 4 5 2 6 7 8 9 10 8 7 7 7
16 8 23 40 12 7 19 11 14 12 12 9 4 6 14 22 18 19 20 16 20 18 23 6 4 4 4 1 2 3 5 6 5 6 2 3 6 1 5 7 9 8 7 4 5
7 7 13 36 14 18 12 7 17 16 15 17 8 8 5 17 11 20 13 8 8 21 23 13 5 4 3 5 2 5 5 4 4 3 7 6 7 4 2 7 6 9 7 5 5
7 6 4 10 5 21 15 22 10 15 21 7 4 5 7 16 9 19 10 5 10 13 9 17 3 11 13 6 12 10 8 7 4 4 5 7 4 3 5 8 8 7 7 6 5
2 3 4 4 13 18 18 10 22 14 14 19 14 13 8 6 20 8 17 5 7 17 7 12 12 12 4 4 9 8 14 11 9 18 11 15 8 8 13 13 10 8 7 7 4
4 2 2 3 8 14 18 16 19 6 11 18 20 20 19 4 14 9 17 7 7 10 16 5 3 6 7 1 2 2 7 17 23 17 13 2 6 5 4 7 7 9 9 8 7
8 1 4 6 7 12 10 16 18 22 14 13 25 17 13 7 9 8 12 11 12 16 20 11 5 7 7 7 6 4 20 17 17 22 25 17 10 5 5 10 12 11 11 10 9
Wind_Direction
352 4 288 298 303 293 293 295 298 298 303 308 312 316 320 321 314 291 249 236 236 228 207 186 175 160 137 108 108 137 70 216 245 171 252 5 209 195 343 292 310 212 184 356 156
348 336 360 304 290 293 292 287 289 293 294 302 311 315 320 321 314 258 259 241 223 188 179 170 157 141 86 186 96 114 148 218 202 203 267 335 27 326 2 349 270 280 130 121 159
313 330 327 331 327 284 285 282 282 285 288 296 305 315 317 322 336 254 309 225 198 193 194 176 155 145 180 138 211 179 203 213 237 226 169 287 287 280 237 262 225 224 223 149 164
296 296 313 319 327 324 274 276 278 276 281 285 297 310 317 301 262 5 357 168 182 193 181 159 130 147 170 201 181 245 236 213 276 126 116 228 309 284 207 233 139 237 214 168 176
303 304 291 307 308 314 325 268 269 271 271 277 285 309 325 287 252 262 150 169 184 188 194 167 148 143 187 200 141 222 270 168 269 282 261 329 248 239 261 257 259 244 178 184 187
285 301 308 297 304 294 305 276 263 265 263 268 276 290 204 254 248 236 190 175 182 182 190 178 202 203 181 209 180 195 258 269 272 243 247 226 256 124 257 128 349 194 222 214 204
272 284 296 303 295 298 297 332 255 253 255 256 265 243 242 242 236 197 178 186 180 177 158 212 253 175 156 227 272 221 313 313 228 214 226 168 278 234 234 311 263 271 225 221 232
290 267 280 296 301 291 293 279 259 232 235 238 239 212 250 244 241 213 177 166 173 164 169 188 223 192 209 282 11 231 73 316 316 141 198 159 267 270 36 189 246 241 264 229 216
279 285 277 282 298 304 283 277 262 214 217 212 179 213 263 253 204 207 184 168 158 171 176 155 112 123 66 92 3 356 235 209 312 186 130 175 275 283 55 42 313 271 244 221 272
274 273 279 277 280 296 275 290 227 190 179 159 314 308 244 235 177 174 177 157 147 133 88 87 65 118 52 132 218 202 227 236 245 177 191 226 264 279 277 281 270 270 261 248 251
263 268 264 272 263 279 281 172 128 194 211 191 198 220 196 139 141 166 165 137 97 104 162 204 160 196 202 183 100 134 204 249 226 209 216 240 265 273 280 235 264 260 267 270 239
257 257 258 260 258 251 246 251 307 21 236 233 244 247 268 190 112 205 170 152 145 176 129 92 243 208 173 188 207 16 321 264 280 209 202 323 284 259 259 247 241 287 283 212 142
260 250 250 252 254 235 218 230 267 321 271 219 209 197 183 153 222 198 170 152 144 151 183 177 224 182 160 159 182 212 195 225 246 335 258 329 289 296 228 160 189 28 52 138 162
259 252 243 244 251 237 207 231 235 295 247 217 193 229 170 148 241 180 177 149 184 179 150 253 230 137 181 201 150 214 200 174 228 37 247 17 278 297 231 271 234 178 148 153 145
252 246 238 231 224 202 215 221 221 209 244 208 175 167 155 176 134 213 170 114 169 174 141 227 182 166 176 209 173 221 134 171 143 139 14 243 3 273 332 258 223 204 188 178 168
246 242 236 239 232 218 214 206 188 200 225 181 141 174 157 194 143 110 147 97 152 143 294 222 220 191 198 130 172 159 82 54 57 85 312 205 173 263 204 217 182 173 190 181 171
243 238 231 225 228 222 217 191 194 217 199 191 184 174 179 171 157 166 173 176 163 145 214 160 210 230 166 98 69 113 103 18 354 5 225 352 179 249 228 218 197 191 192 185 178
244 237 231 221 221 219 191 205 214 207 207 115 159 163 184 151 188 180 162 185 218 188 119 180 271 165 183 186 172 190 168 162 195 196 213 100 229 243 219 205 213 146 171 163 178
240 230 221 222 208 209 189 224 203 186 200 159 151 166 187 181 163 165 189 197 195 185 187 164 232 84 84 148 146 197 214 151 103 29 65 207 282 289 197 209 202 175 161 180 185
233 240 221 223 206 201 206 224 202 183 184 173 185 190 189 180 163 188 178 202 203 204 90 201 121 319 138 137 55 175 158 96 8 145 243 273 280 242 215 207 204 188 193 191 188
218 224 201 197 209 203 226 208 194 228 175 205 206 182 204 187 190 192 187 208 198 187 205 154 101 160 133 211 176 157 180 192 142 167 178 200 254 218 224 187 186 195 191 189 190
210 217 178 173 199 237 210 188 184 213 229 231 271 182 185 193 198 191 199 202 195 159 194 182 107 149 180 208 210 304 219 171 175 219 234 155 263 336 264 192 164 178 164 142 170
206 209 186 177 201 232 209 195 209 213 206 206 230 220 202 179 189 200 203 191 200 176 174 176 179 113 49 347 20 237 207 222 115 87 195 160 254 359 88 139 165 154 159 153 141
183 201 150 201 206 210 216 205 187 205 219 201 263 224 177 185 202 192 208 171 185 194 168 153 161 195 203 191 147 186 198 208 179 176 188 223 225 233 207 175 171 165 160 160 150
131 198 191 186 199 199 211 249 186 192 204 212 233 255 240 164 191 184 192 153 182 197 188 170 209 207 53 334 155 172 194 182 204 234 207 235 205 223 201 195 182 166 153 153 155
180 144 13 165 163 186 209 203 224 270 192 209 227 218 243 250 196 185 178 172 175 191 183 180 189 150 210 58 287 164 190 192 208 221 246 91 281 252 150 103 167 174 164 167 174
190 246 137 220 169 186 195 209 224 204 231 289 217 211 216 252 327 305 211 177 164 167 186 171 141 166 198 138 98 271 220 199 209 217 220 224 199 168 154 184 195 180 172 170 171